Wind_Speed
9 10 12 14 15 16 17 19 20 21 22 24 25 26 27 28 29 29 27 25 25 26 26 25 24 23 23 23 24 23 24 24 23 24 25 25 24 23 23 24 23 21
9 10 11 13 14 16 19 20 20 22 25 26 27 28 28 29 30 29 25 23 24 26 24 23 24 24 23 23 23 22 22 23 23 24 24 24 24 23 24 23 21 20
10 10 11 12 13 15 18 20 21 22 25 27 28 29 29 30 30 28 25 22 23 26 25 22 23 24 23 22 22 21 21 22 22 21 22 23 21 21 21 21 19 19
11 11 11 12 13 15 18 20 22 23 26 28 29 29 29 28 27 26 24 21 22 26 26 23 23 23 22 21 20 19 21 22 22 20 21 21 18 17 17 18 18 18
13 13 13 13 14 15 17 20 22 24 26 27 27 26 25 24 23 22 21 20 21 24 23 21 22 22 20 19 17 17 19 20 20 20 19 17 15 14 14 15 16 17
13 13 14 14 14 15 16 18 21 23 25 25 24 23 23 21 20 18 18 19 20 22 22 20 21 20 18 16 15 16 17 17 16 16 15 13 13 13 14 15 17 18
14 14 14 13 13 14 15 17 19 21 23 23 22 22 21 20 19 18 18 18 19 21 20 18 16 16 14 12 11 12 12 11 10 9 10 10 11 12 13 14 17 19
15 14 13 13 14 15 15 17 18 20 22 22 22 22 20 19 18 18 17 17 17 18 16 14 13 12 11 9 8 9 8 8 7 6 7 8 8 10 12 13 17 19
15 14 14 14 15 15 15 16 18 19 20 21 21 21 20 17 17 17 17 15 12 12 9 7 9 9 8 8 7 7 6 6 6 7 9 10 9 11 13 15 18 19
15 14 14 15 15 16 15 15 17 18 18 19 19 20 18 16 15 15 15 12 8 7 7 5 6 6 5 6 6 5 5 5 6 7 9 9 9 10 12 14 15 15
13 11 12 13 13 14 14 14 15 16 16 17 17 17 17 15 13 12 11 10 7 7 8 6 4 3 3 4 4 4 5 5 5 6 7 8 8 8 9 10 11 11
14 11 9 9 11 12 12 12 13 14 14 15 16 16 15 14 13 11 9 8 7 6 5 4 3 2 2 2 2 2 3 5 5 5 5 6 6 8 8 8 10 11
16 13 10 9 12 14 13 12 12 12 13 14 14 14 13 12 12 12 9 7 6 5 4 1 1 2 2 1 1 0 2 3 4 3 3 4 5 7 8 9 10 11
16 15 13 11 12 13 13 12 12 12 12 13 11 10 11 11 11 11 10 8 6 5 4 2 0 1 1 1 2 2 1 2 2 2 1 2 4 6 8 9 10 11
17 16 14 13 13 13 13 13 13 12 11 11 9 8 8 8 8 8 8 8 6 4 3 2 1 2 2 2 3 2 2 1 0 1 1 2 3 4 6 9 10 11
18 16 14 14 14 15 16 16 15 12 10 10 9 9 8 7 7 7 6 5 5 3 3 4 3 3 4 4 3 4 4 3 3 4 4 5 5 4 6 9 10 10
17 16 16 16 17 18 18 18 17 14 13 12 12 12 12 10 10 9 7 6 6 4 3 4 5 5 6 4 3 5 7 5 4 4 4 6 5 3 5 7 7 6
17 18 18 19 19 20 20 20 20 19 17 17 17 17 16 14 14 12 9 8 8 8 6 6 7 7 7 5 3 3 5 5 3 2 3 5 5 3 0 3 4 3
18 18 19 20 20 20 20 20 22 22 21 20 20 20 20 20 19 17 13 12 12 12 12 10 8 7 7 6 5 3 4 4 3 4 4 5 4 3 2 1 6 5
18 18 19 19 19 19 19 20 22 23 22 21 19 19 20 22 22 21 18 16 14 13 12 9 7 8 9 7 8 8 7 6 6 6 6 7 4 2 2 3 10 7
19 19 19 19 19 20 20 20 22 22 22 21 20 19 19 20 20 19 17 15 13 12 12 10 8 8 8 6 8 10 10 9 9 9 10 10 8 5 5 4 9 10
21 21 21 21 21 21 21 21 21 20 20 20 20 20 19 19 19 18 17 15 13 12 13 12 10 8 6 3 4 7 8 10 11 11 12 12 11 9 9 7 5 10
21 22 23 23 24 24 24 23 22 20 19 19 20 19 19 19 19 19 17 16 14 13 14 13 11 10 8 6 6 7 6 8 10 11 12 13 14 13 11 8 3 7
20 22 23 24 25 26 25 24 23 22 21 20 19 19 19 20 20 19 18 17 15 14 14 12 12 13 13 12 12 11 8 5 6 9 11 12 13 13 12 9 3 4
21 22 22 23 24 23 23 23 22 22 21 21 21 20 20 20 20 19 18 18 17 15 13 12 12 13 14 14 14 14 12 9 7 7 8 9 9 10 10 8 5 2
22 22 21 21 21 20 20 20 20 20 20 20 21 20 20 20 20 19 18 19 19 17 16 15 14 13 13 13 12 13 13 12 11 10 10 9 8 7 7 6 4 3
Wind_Direction
292 295 298 300 304 308 309 309 311 309 305 301 298 296 294 293 291 286 278 273 273 271 268 268 268 266 260 251 245 241 236 231 230 228 226 227 227 222 221 222 222 221
286 293 296 299 309 313 313 312 311 308 306 305 304 302 300 297 294 289 277 270 274 275 270 266 266 264 258 249 242 236 232 229 227 225 224 227 224 214 212 218 220 218
286 284 289 297 304 309 311 311 309 309 311 315 316 312 307 304 299 290 277 269 274 277 273 267 266 264 256 248 242 234 227 226 227 223 219 221 216 209 212 218 219 218
308 303 300 298 299 306 313 313 313 316 319 322 322 317 313 310 303 291 279 273 273 274 273 269 268 266 256 247 244 235 227 225 224 212 206 211 211 209 213 213 213 216
323 321 314 308 306 311 316 318 320 323 326 327 325 324 324 322 313 299 286 281 277 275 274 269 267 267 258 248 245 238 228 226 219 202 199 206 203 202 208 212 215 218
328 325 321 320 319 320 323 323 323 327 330 330 330 331 333 335 332 321 306 297 290 285 282 274 265 261 256 249 242 233 225 221 213 197 194 197 192 198 211 219 222 221
338 332 331 334 333 330 329 325 324 329 332 334 335 335 338 342 344 339 325 310 302 297 288 275 263 252 244 238 231 228 225 221 212 194 190 192 190 204 216 219 222 220
346 348 353 351 343 335 330 328 330 332 334 337 339 338 340 342 340 340 333 317 308 303 286 260 247 239 226 216 212 215 213 209 207 201 207 212 212 223 227 221 218 216
359 9 4 351 343 337 332 333 336 336 336 340 343 343 344 347 343 343 344 333 318 313 299 254 238 230 209 201 203 202 197 197 209 219 224 226 221 224 227 221 216 213
16 19 3 353 351 347 341 340 340 340 341 342 346 348 351 357 355 349 357 2 353 334 323 280 246 237 214 206 205 204 210 213 221 226 225 225 218 212 213 213 214 214
17 13 4 4 2 353 347 343 340 344 347 345 348 352 355 4 5 357 4 16 14 351 331 309 279 264 248 229 217 216 219 216 219 224 225 229 224 214 210 208 214 219
1 358 360 358 350 347 345 341 340 347 353 352 354 355 356 7 12 7 8 9 5 11 1 327 304 309 302 273 249 223 201 199 209 221 231 238 226 218 222 221 222 224
356 356 356 345 339 343 346 343 339 339 341 347 355 358 359 10 15 8 9 11 11 34 54 39 312 355 2 332 324 168 175 190 205 219 240 242 229 232 240 238 235 232
3 6 6 359 354 356 358 355 350 344 341 347 358 2 3 12 13 2 1 10 15 33 45 25 343 76 85 54 63 90 142 180 210 216 215 214 224 240 251 254 248 238
15 15 14 15 17 17 15 10 6 3 358 360 10 14 9 10 8 1 360 5 11 26 41 42 105 114 95 56 46 68 103 121 346 31 348 294 253 241 254 261 254 239
23 23 25 31 32 29 27 23 18 16 14 16 23 24 19 14 9 7 10 22 36 50 77 92 100 95 78 60 49 55 54 35 37 41 2 316 296 265 257 254 248 238
32 37 40 40 38 33 31 29 27 28 31 34 35 32 31 30 24 20 15 27 45 48 63 92 92 83 69 56 62 65 53 46 50 47 8 335 328 294 247 235 230 232
41 47 45 43 41 37 35 36 37 40 43 46 47 45 46 47 42 37 27 25 40 48 49 53 59 66 61 41 41 60 51 55 64 49 25 8 9 35 351 234 201 190
42 48 46 44 43 40 40 44 46 48 49 52 53 53 57 60 56 54 51 45 46 53 56 55 53 60 60 45 37 30 15 17 12 2 6 4 9 46 23 184 154 134
42 48 47 46 46 45 46 48 50 50 49 51 53 53 58 63 63 62 63 60 57 52 50 56 67 66 60 48 39 33 19 5 350 343 349 354 357 358 351 139 141 131
46 51 51 51 51 51 52 52 52 52 50 50 52 51 50 53 55 56 55 52 50 41 34 46 71 68 56 44 34 31 25 16 9 6 4 2 2 3 3 65 123 131
48 53 55 55 56 55 55 56 56 56 55 54 54 52 49 47 45 45 42 39 38 33 32 46 64 58 44 32 19 15 11 10 15 21 18 8 2 360 353 2 87 127
53 55 57 57 57 56 55 55 55 55 55 54 53 50 48 46 44 42 41 40 41 39 39 45 47 36 31 34 28 20 11 4 5 10 11 9 6 2 356 354 49 131
63 63 63 60 58 58 56 55 54 54 54 52 51 49 47 46 45 43 41 40 40 40 39 41 38 28 27 32 30 28 30 18 358 347 347 357 6 6 4 4 25 141
64 65 64 61 59 59 57 56 56 57 57 55 53 51 50 49 46 44 45 45 44 43 39 38 38 31 27 29 28 28 34 35 30 18 11 18 25 19 12 12 15 26
65 65 64 62 60 58 56 55 55 56 57 56 55 54 53 52 51 49 50 50 48 47 43 39 37 32 27 27 26 28 33 36 38 44 49 53 58 50 37 30 22 15
Height
1517 1517 1516 1516 1515 1515 1514 1513 1512 1511 1509 1507 1506 1505 1503 1503 1503 1502 1501 1499 1498 1497 1497 1497 1497 1497 1497 1497 1497 1498 1498 1499 1500 1501 1502 1504 1506 1508 1510 1512 1514 1516
1516 1516 1515 1515 1514 1514 1514 1512 1511 1509 1507 1505 1504 1503 1501 1500 1500 1499 1498 1496 1495 1495 1496 1496 1495 1495 1496 1495 1495 1495 1496 1497 1497 1499 1500 1501 1503 1506 1508 1510 1512 1514
1515 1514 1514 1514 1514 1513 1512 1511 1509 1507 1506 1504 1503 1501 1499 1497 1496 1495 1495 1494 1493 1494 1494 1494 1493 1493 1494 1494 1494 1493 1494 1494 1495 1497 1498 1499 1501 1504 1506 1508 1511 1512
1513 1513 1513 1513 1513 1512 1511 1509 1508 1506 1505 1503 1501 1499 1496 1494 1493 1492 1492 1492 1492 1492 1492 1492 1491 1491 1492 1493 1492 1492 1492 1492 1492 1494 1496 1498 1501 1503 1505 1507 1509 1510
1513 1513 1512 1512 1511 1511 1510 1508 1507 1505 1504 1502 1499 1497 1494 1492 1491 1490 1490 1491 1491 1490 1490 1491 1491 1490 1491 1491 1491 1490 1490 1490 1491 1492 1494 1496 1499 1501 1503 1506 1507 1509
1512 1512 1511 1511 1510 1510 1509 1508 1506 1505 1503 1500 1498 1495 1493 1491 1490 1489 1489 1489 1489 1489 1489 1490 1490 1490 1490 1490 1490 1490 1489 1489 1490 1491 1492 1495 1498 1500 1502 1505 1506 1507
1511 1511 1510 1510 1510 1509 1508 1507 1505 1504 1502 1500 1498 1495 1492 1490 1489 1488 1488 1487 1487 1488 1489 1490 1490 1489 1490 1490 1490 1490 1489 1490 1491 1492 1493 1495 1497 1499 1501 1503 1505 1506
1511 1511 1510 1510 1509 1508 1507 1506 1505 1503 1501 1499 1497 1495 1493 1490 1489 1488 1487 1486 1486 1487 1489 1491 1491 1491 1491 1490 1490 1490 1490 1491 1492 1492 1493 1495 1496 1498 1500 1501 1503 1504
1511 1511 1510 1510 1509 1508 1507 1506 1504 1503 1501 1499 1497 1495 1493 1491 1489 1488 1488 1486 1485 1487 1489 1491 1492 1492 1492 1491 1491 1491 1491 1491 1492 1492 1493 1494 1496 1498 1499 1500 1502 1503
1512 1511 1510 1509 1508 1508 1506 1505 1504 1502 1500 1498 1496 1495 1493 1492 1491 1490 1489 1488 1487 1488 1490 1492 1494 1493 1493 1492 1491 1491 1491 1492 1492 1493 1494 1494 1495 1497 1498 1499 1500 1501
1512 1511 1510 1509 1508 1507 1506 1505 1503 1502 1500 1498 1496 1495 1493 1493 1492 1491 1490 1490 1490 1491 1493 1495 1495 1495 1494 1493 1492 1491 1491 1492 1493 1493 1494 1494 1495 1496 1497 1498 1499 1500
1512 1511 1510 1508 1507 1506 1505 1504 1503 1501 1500 1498 1496 1495 1494 1493 1493 1492 1492 1492 1492 1493 1494 1495 1495 1495 1495 1494 1493 1492 1492 1493 1493 1494 1494 1494 1495 1496 1497 1498 1499 1499
1512 1510 1509 1508 1507 1506 1505 1504 1503 1501 1500 1498 1497 1496 1495 1494 1494 1493 1493 1493 1493 1493 1494 1495 1495 1494 1494 1494 1494 1493 1493 1493 1494 1494 1494 1494 1495 1497 1498 1499 1499 1500
1512 1510 1509 1508 1507 1506 1505 1504 1502 1501 1500 1499 1498 1497 1496 1496 1495 1494 1494 1494 1494 1494 1495 1495 1495 1495 1495 1495 1494 1494 1494 1494 1494 1495 1495 1495 1496 1497 1497 1498 1499 1500
1512 1511 1509 1509 1508 1506 1505 1504 1503 1501 1500 1499 1498 1497 1496 1496 1496 1495 1495 1495 1494 1495 1495 1495 1495 1496 1496 1495 1495 1495 1495 1495 1495 1495 1495 1495 1496 1496 1497 1497 1499 1500
1513 1512 1511 1509 1508 1507 1506 1504 1503 1502 1500 1499 1498 1497 1497 1497 1496 1496 1496 1496 1495 1495 1496 1496 1496 1496 1496 1496 1496 1496 1496 1496 1496 1497 1496 1496 1496 1497 1498 1498 1499 1500
1514 1513 1512 1510 1509 1508 1507 1505 1504 1502 1501 1500 1499 1498 1498 1497 1497 1497 1497 1497 1497 1497 1497 1496 1496 1497 1497 1497 1497 1497 1497 1497 1497 1498 1497 1497 1498 1498 1499 1499 1500 1502
1515 1514 1513 1511 1510 1509 1508 1507 1505 1504 1503 1502 1501 1500 1499 1498 1498 1498 1498 1499 1499 1499 1498 1498 1498 1498 1498 1498 1498 1498 1498 1498 1499 1499 1499 1499 1499 1499 1500 1501 1501 1503
1517 1515 1514 1513 1512 1511 1510 1509 1507 1506 1505 1503 1503 1502 1501 1500 1500 1499 1500 1500 1500 1500 1500 1500 1500 1500 1500 1500 1500 1500 1500 1500 1500 1501 1501 1501 1501 1501 1501 1502 1502 1503
1518 1517 1516 1515 1514 1513 1512 1510 1509 1508 1507 1506 1506 1505 1504 1503 1502 1502 1502 1502 1502 1502 1502 1502 1502 1501 1501 1501 1501 1501 1502 1502 1502 1502 1503 1503 1503 1502 1502 1502 1503 1504
1520 1519 1518 1517 1515 1514 1513 1512 1512 1511 1510 1510 1509 1508 1507 1506 1505 1505 1505 1505 1504 1504 1504 1503 1503 1503 1502 1502 1503 1503 1503 1503 1503 1503 1504 1504 1504 1503 1502 1503 1504 1504
1522 1521 1520 1519 1517 1516 1515 1514 1514 1513 1513 1512 1512 1511 1510 1509 1508 1508 1507 1507 1507 1506 1506 1505 1505 1505 1504 1504 1504 1504 1504 1505 1505 1505 1505 1505 1504 1504 1504 1505 1505 1505
1524 1523 1522 1521 1520 1518 1517 1517 1516 1516 1515 1515 1514 1513 1513 1512 1511 1510 1510 1509 1509 1508 1508 1507 1507 1506 1506 1506 1506 1505 1505 1506 1506 1506 1506 1505 1505 1506 1507 1507 1506 1506
1526 1525 1524 1523 1521 1520 1520 1520 1519 1518 1518 1517 1516 1516 1515 1514 1513 1513 1512 1511 1511 1510 1510 1509 1509 1508 1508 1507 1507 1507 1506 1506 1507 1507 1507 1506 1506 1507 1508 1509 1508 1508
1528 1527 1526 1525 1524 1523 1523 1522 1521 1521 1520 1519 1518 1518 1517 1517 1516 1515 1514 1513 1513 1512 1512 1511 1511 1510 1510 1509 1509 1509 1508 1508 1508 1508 1508 1508 1508 1509 1510 1511 1511 1510
1530 1530 1529 1527 1526 1526 1526 1525 1524 1523 1522 1521 1521 1520 1520 1519 1518 1517 1517 1515 1515 1514 1513 1513 1512 1512 1512 1511 1511 1510 1510 1510 1510 1509 1509 1510 1510 1510 1511 1511 1512 1512